リニア彗星

218P/LINEAR (2003)

English version
Home page
Updated on April 25, 2009

---------------------------------------------------------------------

・ プロフィール

符号 218P/2003 H4
発見日 2003年4月29日
発見光度 19.0等
発見者 Lincoln Laboratory Near-Earth Asteroid Research project

・ 写真集

・ 軌道要素

                    Epoch = 2003 May   1.0 TT
     T = 2003 May  14.30523 TT        Peri. =  10.44779
     e = 0.4899747                    Node  = 226.79339 2000.0
     q = 1.7030954 AU                 Incl. =  18.14776
       a =  3.3392369 AU   n = 0.16152257   P =   6.10 years

・ 星図

・ 光度変化

        m1 = 13.5 + 5 logΔ + 20.0 log r

---------------------------------------------------------------------

軌道要素は、CBET 1767に掲載されたものです。
星図は StellaNavigator Ver.2.0 for Windows (アストロアーツ編著 / アスキー出版局刊) で作成したものです。
光度グラフはComet for Windowsで作成したものです。

---------------------------------------------------------------------

Copyright(C) Seiichi Yoshida (comet@aerith.net). All rights reserved.